Back to catalog

STARLINK-6359

AliveCommunicationsVLEO
NORAD 57346·PAYLOAD·🇺🇸 United States

Launched Jul 16, 2023 from Cape Canaveral Space Force Station

Loading…

Next Passes (next 24 hours)

TLE

FreshSource: CelesTrak SupGP

Epoch: Sep 14, 2026, 13:25 UTC

1 57346C 23099U   26257.55951389  .00025130  00000+0  91036-3 0  2574
2 57346  43.0026 262.6856 0001307 279.9299 228.1485 15.27560667    11

Track STARLINK-6359 in real time with AllMySat

Download on the App Store